Year,Month,Day,Hour,Minute,Value (Times are PST for temperature in C)
2013,07,10,00,00,18.20
2013,07,10,00,01,18.20
2013,07,10,00,02,18.20
2013,07,10,00,03,18.10
2013,07,10,00,04,18.10
2013,07,10,00,05,17.90
2013,07,10,00,06,17.90
2013,07,10,00,07,17.90
2013,07,10,00,08,17.90
2013,07,10,00,09,17.90
2013,07,10,00,10,17.80
2013,07,10,00,11,17.70
2013,07,10,00,12,17.70
2013,07,10,00,13,17.60
2013,07,10,00,14,17.60
2013,07,10,00,15,17.50
2013,07,10,00,16,17.40
2013,07,10,00,17,17.30
2013,07,10,00,18,17.30
2013,07,10,00,19,17.30
2013,07,10,00,20,17.20
2013,07,10,00,21,17.20
2013,07,10,00,22,17.20
2013,07,10,00,23,17.10
2013,07,10,00,24,17.10
2013,07,10,00,25,17.00
2013,07,10,00,26,17.00
2013,07,10,00,27,16.90
2013,07,10,00,28,16.90
2013,07,10,00,29,16.80
2013,07,10,00,30,16.80
2013,07,10,00,31,16.70
2013,07,10,00,32,16.70
2013,07,10,00,33,16.70
2013,07,10,00,34,16.70
2013,07,10,00,35,16.70
2013,07,10,00,36,16.60
2013,07,10,00,37,16.60
2013,07,10,00,38,16.60
2013,07,10,00,39,16.60
2013,07,10,00,40,16.40
2013,07,10,00,41,16.40
2013,07,10,00,42,16.40
2013,07,10,00,43,16.40
2013,07,10,00,44,16.40
2013,07,10,00,45,16.40
2013,07,10,00,46,16.40
2013,07,10,00,47,16.40
2013,07,10,00,48,16.40
2013,07,10,00,49,16.40
2013,07,10,00,50,16.40
2013,07,10,00,51,16.30
2013,07,10,00,52,16.30
2013,07,10,00,53,16.30
2013,07,10,00,54,16.30
2013,07,10,00,55,16.20
2013,07,10,00,56,16.20
2013,07,10,00,57,16.10
2013,07,10,00,58,16.10
2013,07,10,00,59,16.10
2013,07,10,01,00,16.10
2013,07,10,01,01,16.10
2013,07,10,01,02,16.10
2013,07,10,01,03,16.10
2013,07,10,01,04,16.10
2013,07,10,01,05,16.10
2013,07,10,01,06,16.10
2013,07,10,01,07,16.10
2013,07,10,01,08,15.90
2013,07,10,01,09,15.90
2013,07,10,01,10,15.90
2013,07,10,01,11,15.90
2013,07,10,01,12,15.90
2013,07,10,01,13,15.90
2013,07,10,01,14,15.90
2013,07,10,01,15,15.80
2013,07,10,01,16,15.80
2013,07,10,01,17,15.80
2013,07,10,01,18,15.80
2013,07,10,01,19,15.80
2013,07,10,01,20,15.80
2013,07,10,01,21,15.80
2013,07,10,01,22,15.80
2013,07,10,01,23,15.90
2013,07,10,01,24,15.80
2013,07,10,01,25,15.80
2013,07,10,01,26,15.80
2013,07,10,01,27,15.80
2013,07,10,01,28,15.80
2013,07,10,01,29,15.80
2013,07,10,01,30,15.80
2013,07,10,01,31,15.80
2013,07,10,01,32,15.80
2013,07,10,01,33,15.80
2013,07,10,01,34,15.70
2013,07,10,01,35,15.70
2013,07,10,01,36,15.70
2013,07,10,01,37,15.70
2013,07,10,01,38,15.70
2013,07,10,01,39,15.70
2013,07,10,01,40,15.60
2013,07,10,01,41,15.60
2013,07,10,01,42,15.60
2013,07,10,01,43,15.60
2013,07,10,01,44,15.60
2013,07,10,01,45,15.60
2013,07,10,01,46,15.60
2013,07,10,01,47,15.60
2013,07,10,01,48,15.50
2013,07,10,01,49,15.50
2013,07,10,01,50,15.50
2013,07,10,01,51,15.50
2013,07,10,01,52,15.40
2013,07,10,01,53,15.40
2013,07,10,01,54,15.30
2013,07,10,01,55,15.40
2013,07,10,01,56,15.40
2013,07,10,01,57,15.40
2013,07,10,01,58,15.40
2013,07,10,01,59,15.40
2013,07,10,02,00,15.50
2013,07,10,02,01,15.50
2013,07,10,02,02,15.50
2013,07,10,02,03,15.50
2013,07,10,02,04,15.40
2013,07,10,02,05,15.40
2013,07,10,02,06,15.40
2013,07,10,02,07,15.40
2013,07,10,02,08,15.40
2013,07,10,02,09,15.30
2013,07,10,02,10,15.30
2013,07,10,02,11,15.30
2013,07,10,02,12,15.30
2013,07,10,02,13,15.30
2013,07,10,02,14,15.30
2013,07,10,02,15,15.40
2013,07,10,02,16,15.40
2013,07,10,02,17,15.40
2013,07,10,02,18,15.30
2013,07,10,02,19,15.30
2013,07,10,02,20,15.30
2013,07,10,02,21,15.30
2013,07,10,02,22,15.30
2013,07,10,02,23,15.30
2013,07,10,02,24,15.30
2013,07,10,02,25,15.30
2013,07,10,02,26,15.30
2013,07,10,02,27,15.30
2013,07,10,02,28,15.30
2013,07,10,02,29,15.30
2013,07,10,02,30,15.30
2013,07,10,02,31,15.30
2013,07,10,02,32,15.30
2013,07,10,02,33,15.30
2013,07,10,02,34,15.30
2013,07,10,02,35,15.30
2013,07,10,02,36,15.30
2013,07,10,02,37,15.40
2013,07,10,02,38,15.40
2013,07,10,02,39,15.30
2013,07,10,02,40,15.30
2013,07,10,02,41,15.30
2013,07,10,02,42,15.30
2013,07,10,02,43,15.30
2013,07,10,02,44,15.30
2013,07,10,02,45,15.30
2013,07,10,02,46,15.30
2013,07,10,02,47,15.20
2013,07,10,02,48,15.20
2013,07,10,02,49,15.20
2013,07,10,02,50,15.20
2013,07,10,02,51,15.10
2013,07,10,02,52,15.10
2013,07,10,02,53,15.10
2013,07,10,02,54,15.00
2013,07,10,02,55,15.00
2013,07,10,02,56,15.00
2013,07,10,02,57,14.90
2013,07,10,02,58,14.90
2013,07,10,02,59,14.90
2013,07,10,03,00,14.90
2013,07,10,03,01,14.80
2013,07,10,03,02,14.80
2013,07,10,03,03,14.80
2013,07,10,03,04,14.80
2013,07,10,03,05,14.80
2013,07,10,03,06,14.80
2013,07,10,03,07,14.80
2013,07,10,03,08,14.80
2013,07,10,03,09,14.70
2013,07,10,03,10,14.70
2013,07,10,03,11,14.70
2013,07,10,03,12,14.60
2013,07,10,03,13,14.60
2013,07,10,03,14,14.60
2013,07,10,03,15,14.60
2013,07,10,03,16,14.50
2013,07,10,03,17,14.50
2013,07,10,03,18,14.50
2013,07,10,03,19,14.40
2013,07,10,03,20,14.40
2013,07,10,03,21,14.40
2013,07,10,03,22,14.40
2013,07,10,03,23,14.30
2013,07,10,03,24,14.30
2013,07,10,03,25,14.30
2013,07,10,03,26,14.30
2013,07,10,03,27,14.20
2013,07,10,03,28,14.20
2013,07,10,03,29,14.20
2013,07,10,03,30,14.20
2013,07,10,03,31,14.20
2013,07,10,03,32,14.20
2013,07,10,03,33,14.20
2013,07,10,03,34,14.10
2013,07,10,03,35,14.10
2013,07,10,03,36,14.10
2013,07,10,03,37,14.10
2013,07,10,03,38,14.10
2013,07,10,03,39,14.10
2013,07,10,03,40,14.10
2013,07,10,03,41,14.10
2013,07,10,03,42,14.10
2013,07,10,03,43,14.10
2013,07,10,03,44,14.10
2013,07,10,03,45,14.10
2013,07,10,03,46,14.10
2013,07,10,03,47,14.00
2013,07,10,03,48,14.00
2013,07,10,03,49,14.00
2013,07,10,03,50,14.00
2013,07,10,03,51,14.00
2013,07,10,03,52,14.00
2013,07,10,03,53,13.90
2013,07,10,03,54,13.90
2013,07,10,03,55,13.90
2013,07,10,03,56,13.90
2013,07,10,03,57,13.90
2013,07,10,03,58,14.00
2013,07,10,03,59,14.00
2013,07,10,04,00,14.00
2013,07,10,04,01,13.90
2013,07,10,04,02,13.90
2013,07,10,04,03,13.80
2013,07,10,04,04,13.80
2013,07,10,04,05,13.70
2013,07,10,04,06,13.70
2013,07,10,04,07,13.70
2013,07,10,04,08,13.70
2013,07,10,04,09,13.70
2013,07,10,04,10,13.70
2013,07,10,04,11,13.70
2013,07,10,04,12,13.70
2013,07,10,04,13,13.70
2013,07,10,04,14,13.70
2013,07,10,04,15,13.70
2013,07,10,04,16,13.70
2013,07,10,04,17,13.60
2013,07,10,04,18,13.60
2013,07,10,04,19,13.70
2013,07,10,04,20,13.70
2013,07,10,04,21,13.70
2013,07,10,04,22,13.70
2013,07,10,04,23,13.70
2013,07,10,04,24,13.80
2013,07,10,04,25,13.80
2013,07,10,04,26,13.80
2013,07,10,04,27,13.80
2013,07,10,04,28,13.80
2013,07,10,04,29,13.80
2013,07,10,04,30,13.80
2013,07,10,04,31,13.80
2013,07,10,04,32,13.80
2013,07,10,04,33,13.80
2013,07,10,04,34,13.80
2013,07,10,04,35,13.80
